Location: Bramevaque
(42.9773°N, 0.5757°E)
Time: 05:46:50
(UTC+00:00)

Cosmos 1953 Rocket - Pass Details

Date: 15 May 2026
Orbit: 597 x 628 km, 82.5° (Epoch: 6 June)

Event Time Altitude Azimuth Distance (km) Brightness Sun altitude
Rises 22:13:43 0° 350° (N) 2,874 8.2 -23.8°
Reaches altitude 10° 22:15:57 10° 350° (N) 1,961 7.1 -24.0°
Enters shadow 22:20:11 80° 291° (WNW) 615 3.5 -24.3°
